SAS78C EGLL-EKCH

Flight info

Callsign SAS78C
Flight time 1h 41m
Altitude 37000
Route BPK Q295 SOMVA DCT MAVAS DCT DOSUR DCT TALSA P729 TUDLO
Aircraft A320/M-SDE1FGHIJ1RWXYZ/LB1

Departure

Time 2026-04-22 17:49
Airport London Heathrow Airport (EGLL)

Arrival

Time 2026-04-22 19:30
Airport Copenhagen Kastrup Airport (EKCH)
Time Latitude Longitude Altitude Speed Heading
2026-04-22 17:03 51.46826 -0.45112 86 ft 0 kts 360°
2026-04-22 17:37 51.46825 -0.45112 86 ft 2 kts 360°
2026-04-22 17:37 51.46800 -0.45112 86 ft 4 kts 360°
2026-04-22 17:37 51.46780 -0.45111 86 ft 4 kts 348°
2026-04-22 17:37 51.46759 -0.45093 91 ft 4 kts 300°
2026-04-22 17:38 51.46751 -0.45054 86 ft 4 kts 271°
2026-04-22 17:38 51.46751 -0.45013 86 ft 4 kts 269°
2026-04-22 17:38 51.46751 -0.45004 86 ft 1 kts 269°
2026-04-22 17:41 51.46751 -0.45019 86 ft 3 kts 269°
2026-04-22 17:41 51.46751 -0.45064 87 ft 5 kts 269°
2026-04-22 17:41 51.46751 -0.45134 88 ft 7 kts 270°
2026-04-22 17:42 51.46751 -0.45228 86 ft 9 kts 269°
2026-04-22 17:42 51.46750 -0.45346 86 ft 12 kts 269°
2026-04-22 17:42 51.46749 -0.45439 86 ft 13 kts 269°
2026-04-22 17:42 51.46749 -0.45655 86 ft 16 kts 270°
2026-04-22 17:43 51.46748 -0.45846 86 ft 18 kts 270°
2026-04-22 17:43 51.46748 -0.46059 86 ft 19 kts 270°
2026-04-22 17:43 51.46747 -0.46261 88 ft 17 kts 269°
2026-04-22 17:43 51.46748 -0.46445 88 ft 17 kts 271°
2026-04-22 17:44 51.46748 -0.46630 89 ft 16 kts 270°
2026-04-22 17:44 51.46747 -0.46788 91 ft 14 kts 269°
2026-04-22 17:44 51.46747 -0.46958 88 ft 16 kts 270°
2026-04-22 17:44 51.46746 -0.47148 86 ft 17 kts 271°
2026-04-22 17:45 51.46746 -0.47335 89 ft 18 kts 269°
2026-04-22 17:45 51.46744 -0.47542 88 ft 19 kts 270°
2026-04-22 17:45 51.46745 -0.47724 86 ft 14 kts 270°
2026-04-22 17:45 51.46744 -0.47877 86 ft 15 kts 266°
2026-04-22 17:46 51.46743 -0.48051 88 ft 17 kts 270°
2026-04-22 17:46 51.46725 -0.48205 89 ft 10 kts 220°
2026-04-22 17:46 51.46652 -0.48212 86 ft 12 kts 179°
2026-04-22 17:46 51.46561 -0.48212 87 ft 14 kts 180°
2026-04-22 17:47 51.46483 -0.48200 90 ft 7 kts 142°
2026-04-22 17:47 51.46480 -0.48173 88 ft 0 kts 90°
2026-04-22 17:48 51.46480 -0.48169 88 ft 3 kts 90°
2026-04-22 17:48 51.46482 -0.47523 85 ft 89 kts 90°
2026-04-22 17:48 51.46486 -0.46231 90 ft 140 kts 90°
2026-04-22 17:48 51.46501 -0.44529 432 ft 152 kts 89°
2026-04-22 17:49 51.46523 -0.42854 1133 ft 149 kts 90°
2026-04-22 17:49 51.46663 -0.41200 1690 ft 156 kts 72°
2026-04-22 17:49 51.47289 -0.39644 1986 ft 178 kts 54°
2026-04-22 17:49 51.48136 -0.38046 2312 ft 199 kts 54°
2026-04-22 17:50 51.49097 -0.36268 2695 ft 222 kts 53°
2026-04-22 17:50 51.50156 -0.34322 3211 ft 239 kts 53°
2026-04-22 17:50 51.51256 -0.32343 4114 ft 243 kts 53°
2026-04-22 17:50 51.52407 -0.30297 5011 ft 249 kts 53°
2026-04-22 17:51 51.53587 -0.28209 5882 ft 257 kts 54°
2026-04-22 17:51 51.54797 -0.26050 6738 ft 262 kts 53°
2026-04-22 17:51 51.56037 -0.23860 7561 ft 267 kts 53°
2026-04-22 17:51 51.57292 -0.21628 8342 ft 272 kts 53°
2026-04-22 17:52 51.58570 -0.19333 9052 ft 279 kts 53°
2026-04-22 17:52 51.59868 -0.16988 9297 ft 282 kts 53°
2026-04-22 17:52 51.61170 -0.14622 9362 ft 282 kts 53°
2026-04-22 17:52 51.62584 -0.12424 9374 ft 288 kts 37°
2026-04-22 17:53 51.63798 -0.11514 9365 ft 294 kts 19°
2026-04-22 17:53 51.65860 -0.11181 9370 ft 301 kts
2026-04-22 17:53 51.67954 -0.11274 9374 ft 302 kts
2026-04-22 17:53 51.70057 -0.11407 9381 ft 302 kts
2026-04-22 17:54 51.72808 -0.11188 9364 ft 295 kts 21°
2026-04-22 17:54 51.74555 -0.09632 9368 ft 283 kts 48°
2026-04-22 17:54 51.75372 -0.07984 9365 ft 277 kts 66°
2026-04-22 17:54 51.75935 -0.05082 9374 ft 270 kts 84°
2026-04-22 17:55 51.76204 -0.02084 9364 ft 269 kts 86°
2026-04-22 17:55 51.76424 0.00879 9379 ft 270 kts 87°
2026-04-22 17:55 51.76624 0.03913 9684 ft 275 kts 86°
2026-04-22 17:55 51.76816 0.06971 10549 ft 275 kts 86°
2026-04-22 17:56 51.77008 0.10167 10843 ft 298 kts 86°
2026-04-22 17:56 51.77213 0.13601 11180 ft 314 kts 86°
2026-04-22 17:56 51.77430 0.17152 11815 ft 320 kts 86°
2026-04-22 17:56 51.77655 0.20758 12422 ft 326 kts 86°
2026-04-22 17:57 51.77888 0.24428 12822 ft 334 kts 86°
2026-04-22 17:57 51.78149 0.28218 13236 ft 346 kts 85°
2026-04-22 17:57 51.78456 0.32130 13636 ft 357 kts 84°
2026-04-22 17:57 51.78790 0.36141 14043 ft 363 kts 84°
2026-04-22 17:58 51.79134 0.40195 14444 ft 366 kts 84°
2026-04-22 17:58 51.79471 0.44229 14842 ft 368 kts 84°
2026-04-22 17:58 51.79811 0.48393 15263 ft 371 kts 84°
2026-04-22 17:58 51.80137 0.52487 15679 ft 375 kts 84°
2026-04-22 17:59 51.80463 0.56683 16220 ft 378 kts 84°
2026-04-22 17:59 51.80794 0.60921 16776 ft 382 kts 84°
2026-04-22 17:59 51.81252 0.65169 17336 ft 387 kts 76°
2026-04-22 17:59 51.82185 0.69270 17896 ft 391 kts 68°
2026-04-22 18:00 51.83247 0.73338 18480 ft 395 kts 68°
2026-04-22 18:00 51.84316 0.77449 19034 ft 398 kts 68°
2026-04-22 18:00 51.85388 0.81594 19581 ft 402 kts 68°
2026-04-22 18:00 51.86472 0.85786 20118 ft 405 kts 67°
2026-04-22 18:01 51.87563 0.90010 20648 ft 408 kts 67°
2026-04-22 18:01 51.88660 0.94273 21139 ft 411 kts 67°
2026-04-22 18:01 51.89760 0.98564 21595 ft 414 kts 67°
2026-04-22 18:01 51.90852 1.02837 22025 ft 417 kts 67°
2026-04-22 18:02 51.91964 1.07193 22449 ft 420 kts 66°
2026-04-22 18:02 51.93084 1.11582 22860 ft 422 kts 66°
2026-04-22 18:02 51.94208 1.15997 23251 ft 425 kts 66°
2026-04-22 18:02 51.95336 1.20439 23647 ft 427 kts 66°
2026-04-22 18:03 51.96468 1.24906 24025 ft 430 kts 66°
2026-04-22 18:03 51.97607 1.29399 24395 ft 432 kts 67°
2026-04-22 18:03 51.98751 1.33915 24747 ft 434 kts 67°
2026-04-22 18:03 51.99898 1.38462 25082 ft 436 kts 67°
2026-04-22 18:04 52.01045 1.43032 25422 ft 438 kts 67°
2026-04-22 18:04 52.02195 1.47624 25763 ft 440 kts 68°
2026-04-22 18:04 52.03351 1.52241 26097 ft 442 kts 67°
2026-04-22 18:04 52.04498 1.56818 26404 ft 444 kts 67°
2026-04-22 18:05 52.05666 1.61477 26721 ft 446 kts 67°
2026-04-22 18:05 52.06839 1.66171 27033 ft 448 kts 67°
2026-04-22 18:05 52.08017 1.70897 27205 ft 453 kts 67°
2026-04-22 18:05 52.09205 1.75686 27417 ft 456 kts 67°
2026-04-22 18:06 52.10389 1.80473 27737 ft 457 kts 67°
2026-04-22 18:06 52.11573 1.85274 28101 ft 457 kts 67°
2026-04-22 18:06 52.12752 1.90069 28474 ft 456 kts 67°
2026-04-22 18:06 52.13926 1.94858 28848 ft 455 kts 67°
2026-04-22 18:07 52.15098 1.99645 29215 ft 455 kts 66°
2026-04-22 18:07 52.16264 2.04416 29634 ft 452 kts 65°
2026-04-22 18:07 52.17419 2.09149 30115 ft 448 kts 65°
2026-04-22 18:07 52.18565 2.13852 30532 ft 446 kts 65°
2026-04-22 18:08 52.19695 2.18490 30910 ft 445 kts 65°
2026-04-22 18:08 52.20837 2.23182 31278 ft 445 kts 65°
2026-04-22 18:08 52.21976 2.27872 31637 ft 444 kts 65°
2026-04-22 18:08 52.23107 2.32555 32003 ft 444 kts 65°
2026-04-22 18:09 52.24235 2.37238 32355 ft 443 kts 65°
2026-04-22 18:09 52.25362 2.41918 32712 ft 442 kts 65°
2026-04-22 18:09 52.26484 2.46588 33083 ft 442 kts 65°
2026-04-22 18:09 52.27604 2.51262 33440 ft 441 kts 66°
2026-04-22 18:10 52.28718 2.55932 33794 ft 440 kts 66°
2026-04-22 18:10 52.29825 2.60585 34145 ft 440 kts 66°
2026-04-22 18:10 52.30889 2.65269 34493 ft 440 kts 70°
2026-04-22 18:10 52.31744 2.70069 34830 ft 440 kts 71°
2026-04-22 18:11 52.32591 2.74877 35164 ft 440 kts 71°
2026-04-22 18:11 52.33434 2.79676 35476 ft 439 kts 71°
2026-04-22 18:11 52.34276 2.84472 35780 ft 439 kts 71°
2026-04-22 18:11 52.35118 2.89268 36070 ft 439 kts 71°
2026-04-22 18:12 52.35948 2.93998 36350 ft 438 kts 72°
2026-04-22 18:12 52.36787 2.98795 36613 ft 439 kts 72°
2026-04-22 18:12 52.37352 3.02036 36816 ft 438 kts 72°
2026-04-22 18:12 52.38442 3.08348 37283 ft 433 kts 72°
2026-04-22 18:13 52.39295 3.13076 37383 ft 431 kts 68°
2026-04-22 18:13 52.42123 3.21609 37382 ft 426 kts 51°
2026-04-22 18:14 52.45689 3.29362 37384 ft 426 kts 52°
2026-04-22 18:14 52.49210 3.37082 37382 ft 425 kts 52°
2026-04-22 18:15 52.52747 3.44889 37382 ft 426 kts 52°
2026-04-22 18:15 52.56277 3.52700 37386 ft 426 kts 52°
2026-04-22 18:16 52.59819 3.60532 37393 ft 426 kts 52°
2026-04-22 18:16 52.63353 3.68381 37404 ft 426 kts 52°
2026-04-22 18:17 52.66853 3.76183 37406 ft 426 kts 52°
2026-04-22 18:17 52.70375 3.84052 37411 ft 427 kts 52°
2026-04-22 18:18 52.73894 3.91940 37411 ft 427 kts 52°
2026-04-22 18:18 52.77409 3.99828 37416 ft 427 kts 53°
2026-04-22 18:19 52.80896 4.07752 37422 ft 426 kts 53°
2026-04-22 18:19 52.84321 4.15748 37426 ft 425 kts 54°
2026-04-22 18:20 52.87706 4.23764 37433 ft 424 kts 54°
2026-04-22 18:20 52.91079 4.31773 37436 ft 423 kts 54°
2026-04-22 18:21 52.94429 4.39711 37433 ft 423 kts 54°
2026-04-22 18:21 52.97800 4.47706 37436 ft 422 kts 54°
2026-04-22 18:22 53.01156 4.55704 37437 ft 422 kts 55°
2026-04-22 18:22 53.04507 4.63717 37436 ft 422 kts 55°
2026-04-22 18:23 53.07845 4.71733 37438 ft 422 kts 55°
2026-04-22 18:23 53.11159 4.79701 37443 ft 421 kts 55°
2026-04-22 18:24 53.16149 4.91740 37440 ft 420 kts 55°
2026-04-22 18:25 53.21107 5.03791 37449 ft 420 kts 56°
2026-04-22 18:25 53.24405 5.11834 37452 ft 420 kts 56°
2026-04-22 18:26 53.29345 5.23927 37455 ft 420 kts 56°
2026-04-22 18:26 53.32616 5.31943 37456 ft 419 kts 56°
2026-04-22 18:27 53.35894 5.40013 37462 ft 419 kts 56°
2026-04-22 18:27 53.39158 5.48098 37458 ft 419 kts 57°
2026-04-22 18:28 53.42415 5.56191 37461 ft 418 kts 57°
2026-04-22 18:28 53.45669 5.64273 37464 ft 417 kts 57°
2026-04-22 18:29 53.48891 5.72303 37461 ft 417 kts 57°
2026-04-22 18:29 53.52127 5.80386 37464 ft 417 kts 57°
2026-04-22 18:30 53.56956 5.92541 37465 ft 416 kts 58°
2026-04-22 18:31 53.60159 6.00632 37463 ft 416 kts 58°
2026-04-22 18:31 53.63357 6.08734 37467 ft 415 kts 58°
2026-04-22 18:32 53.66524 6.16781 37463 ft 414 kts 58°
2026-04-22 18:32 53.69705 6.24879 37449 ft 414 kts 58°
2026-04-22 18:33 53.72876 6.32985 37450 ft 413 kts 58°
2026-04-22 18:33 53.76039 6.41094 37447 ft 413 kts 58°
2026-04-22 18:34 53.79196 6.49213 37451 ft 413 kts 58°
2026-04-22 18:34 53.82343 6.57351 37449 ft 413 kts 58°
2026-04-22 18:35 53.85487 6.65494 37445 ft 413 kts 58°
2026-04-22 18:35 53.88603 6.73594 37444 ft 412 kts 59°
2026-04-22 18:36 53.91731 6.81750 37446 ft 412 kts 59°
2026-04-22 18:36 53.94850 6.89905 37442 ft 412 kts 59°
2026-04-22 18:37 53.97961 6.98059 37441 ft 411 kts 59°
2026-04-22 18:37 54.00535 7.04833 37439 ft 410 kts 59°
2026-04-22 18:38 54.04136 7.14352 37435 ft 408 kts 60°
2026-04-22 18:38 54.07168 7.22400 37436 ft 406 kts 60°
2026-04-22 18:39 54.11716 7.34508 37432 ft 403 kts 60°
2026-04-22 18:39 54.14731 7.42544 37431 ft 401 kts 60°
2026-04-22 18:40 54.17727 7.50589 37430 ft 401 kts 60°
2026-04-22 18:40 54.20715 7.58632 37432 ft 400 kts 60°
2026-04-22 18:41 54.23693 7.66654 37428 ft 399 kts 60°
2026-04-22 18:41 54.26639 7.74627 37421 ft 399 kts 61°
2026-04-22 18:42 54.29597 7.82663 37420 ft 398 kts 61°
2026-04-22 18:42 54.32086 7.91064 37418 ft 395 kts 67°
2026-04-22 18:43 54.34420 7.99562 37200 ft 395 kts 67°
2026-04-22 18:43 54.35575 8.03808 36897 ft 390 kts 68°
2026-04-22 18:43 54.36716 8.08001 36653 ft 387 kts 68°
2026-04-22 18:44 54.37854 8.12172 36401 ft 385 kts 68°
2026-04-22 18:44 54.38988 8.16326 36151 ft 385 kts 68°
2026-04-22 18:44 54.40128 8.20501 35902 ft 388 kts 68°
2026-04-22 18:44 54.41256 8.24641 35655 ft 388 kts 69°
2026-04-22 18:45 54.42397 8.28828 35406 ft 385 kts 69°
2026-04-22 18:45 54.43525 8.32983 35157 ft 383 kts 69°
2026-04-22 18:45 54.44643 8.37110 34907 ft 380 kts 69°
2026-04-22 18:45 54.45753 8.41209 34656 ft 376 kts 70°
2026-04-22 18:46 54.46851 8.45269 34406 ft 373 kts 70°
2026-04-22 18:46 54.47938 8.49299 34157 ft 370 kts 70°
2026-04-22 18:46 54.49015 8.53296 33906 ft 367 kts 70°
2026-04-22 18:46 54.50079 8.57264 33654 ft 364 kts 70°
2026-04-22 18:47 54.51136 8.61219 33403 ft 363 kts 70°
2026-04-22 18:47 54.52192 8.65166 33171 ft 362 kts 70°
2026-04-22 18:47 54.53240 8.69095 32907 ft 360 kts 70°
2026-04-22 18:47 54.54280 8.73003 32654 ft 359 kts 70°
2026-04-22 18:48 54.55317 8.76907 32403 ft 358 kts 70°
2026-04-22 18:48 54.56337 8.80744 32157 ft 356 kts 70°
2026-04-22 18:48 54.57368 8.84619 31907 ft 355 kts 70°
2026-04-22 18:48 54.58395 8.88485 31659 ft 354 kts 70°
2026-04-22 18:49 54.59410 8.92332 31405 ft 353 kts 70°
2026-04-22 18:49 54.60426 8.96179 31156 ft 352 kts 70°
2026-04-22 18:49 54.61438 9.00021 30906 ft 352 kts 70°
2026-04-22 18:49 54.62445 9.03847 30657 ft 349 kts 70°
2026-04-22 18:50 54.63448 9.07672 30407 ft 348 kts 70°
2026-04-22 18:50 54.64444 9.11483 30149 ft 348 kts 70°
2026-04-22 18:50 54.65437 9.15278 29904 ft 347 kts 69°
2026-04-22 18:50 54.66429 9.19077 29643 ft 346 kts 70°
2026-04-22 18:51 54.67416 9.22862 29388 ft 345 kts 69°
2026-04-22 18:51 54.68402 9.26639 29134 ft 345 kts 69°
2026-04-22 18:51 54.69373 9.30367 28883 ft 345 kts 69°
2026-04-22 18:51 54.70354 9.34139 28628 ft 343 kts 69°
2026-04-22 18:52 54.71331 9.37918 28375 ft 344 kts 69°
2026-04-22 18:52 54.72308 9.41703 28125 ft 344 kts 69°
2026-04-22 18:52 54.73282 9.45493 27872 ft 344 kts 68°
2026-04-22 18:52 54.74256 9.49281 27620 ft 344 kts 68°
2026-04-22 18:53 54.75228 9.53061 27365 ft 345 kts 68°
2026-04-22 18:53 54.76199 9.56856 27116 ft 344 kts 68°
2026-04-22 18:53 54.77168 9.60643 26877 ft 344 kts 68°
2026-04-22 18:53 54.78144 9.64435 26619 ft 344 kts 68°
2026-04-22 18:54 54.79114 9.68215 26366 ft 343 kts 68°
2026-04-22 18:54 54.80082 9.72001 26117 ft 343 kts 68°
2026-04-22 18:54 54.80721 9.74506 25950 ft 344 kts 68°
2026-04-22 18:54 54.81689 9.78302 25700 ft 344 kts 68°
2026-04-22 18:55 54.82654 9.82099 25450 ft 344 kts 67°
2026-04-22 18:55 54.83617 9.85893 25199 ft 344 kts 67°
2026-04-22 18:55 54.84889 9.90930 24872 ft 344 kts 67°
2026-04-22 18:55 54.85534 9.93495 24695 ft 343 kts 67°
2026-04-22 18:56 54.86488 9.97291 24449 ft 343 kts 67°
2026-04-22 18:56 54.87443 10.01095 24197 ft 343 kts 67°
2026-04-22 18:56 54.88384 10.04840 23942 ft 344 kts 66°
2026-04-22 18:56 54.89342 10.08644 23702 ft 343 kts 66°
2026-04-22 18:57 54.90297 10.12440 23448 ft 342 kts 66°
2026-04-22 18:57 54.91246 10.16236 23203 ft 342 kts 66°
2026-04-22 18:57 54.92192 10.20015 22949 ft 341 kts 66°
2026-04-22 18:57 54.93134 10.23791 22700 ft 339 kts 66°
2026-04-22 18:58 54.94073 10.27555 22447 ft 338 kts 66°
2026-04-22 18:58 54.95004 10.31305 22192 ft 337 kts 66°
2026-04-22 18:58 54.95929 10.35041 21947 ft 336 kts 66°
2026-04-22 18:58 54.96850 10.38770 21691 ft 334 kts 66°
2026-04-22 18:59 54.97766 10.42483 21448 ft 333 kts 66°
2026-04-22 18:59 54.98667 10.46142 21200 ft 332 kts 66°
2026-04-22 18:59 54.99576 10.49832 20950 ft 332 kts 66°
2026-04-22 18:59 55.00483 10.53516 20699 ft 331 kts 65°
2026-04-22 19:00 55.01387 10.57197 20448 ft 329 kts 65°
2026-04-22 19:00 55.02285 10.60860 20198 ft 328 kts 65°
2026-04-22 19:00 55.03181 10.64518 19946 ft 327 kts 65°
2026-04-22 19:00 55.04073 10.68170 19696 ft 327 kts 65°
2026-04-22 19:01 55.04963 10.71814 19445 ft 326 kts 65°
2026-04-22 19:01 55.05848 10.75442 19192 ft 324 kts 65°
2026-04-22 19:01 55.06731 10.79068 18940 ft 324 kts 65°
2026-04-22 19:01 55.07609 10.82684 18686 ft 323 kts 65°
2026-04-22 19:02 55.08479 10.86289 18438 ft 322 kts 65°
2026-04-22 19:02 55.09348 10.89887 18186 ft 321 kts 65°
2026-04-22 19:02 55.10203 10.93428 17943 ft 320 kts 65°
2026-04-22 19:02 55.11066 10.97012 17689 ft 320 kts 65°
2026-04-22 19:03 55.11925 11.00591 17444 ft 319 kts 65°
2026-04-22 19:03 55.12785 11.04162 17187 ft 318 kts 65°
2026-04-22 19:03 55.13640 11.07718 16932 ft 317 kts 65°
2026-04-22 19:03 55.14490 11.11259 16692 ft 313 kts 65°
2026-04-22 19:04 55.15323 11.14754 16345 ft 310 kts 65°
2026-04-22 19:04 55.16151 11.18231 15965 ft 308 kts 65°
2026-04-22 19:04 55.16972 11.21682 15583 ft 307 kts 64°
2026-04-22 19:04 55.17790 11.25126 15202 ft 306 kts 64°
2026-04-22 19:05 55.18603 11.28555 14822 ft 305 kts 64°
2026-04-22 19:05 55.19413 11.31973 14443 ft 303 kts 64°
2026-04-22 19:05 55.20209 11.35338 14071 ft 302 kts 64°
2026-04-22 19:05 55.21012 11.38738 13688 ft 302 kts 64°
2026-04-22 19:06 55.21814 11.42126 13318 ft 300 kts 64°
2026-04-22 19:06 55.22613 11.45502 12938 ft 300 kts 64°
2026-04-22 19:06 55.23406 11.48864 12568 ft 298 kts 64°
2026-04-22 19:07 55.24979 11.55564 11823 ft 296 kts 63°
2026-04-22 19:07 55.25761 11.58895 11494 ft 293 kts 63°
2026-04-22 19:07 55.26533 11.62193 11100 ft 293 kts 63°
2026-04-22 19:07 55.27301 11.65488 10736 ft 292 kts 63°
2026-04-22 19:08 55.28065 11.68774 10386 ft 290 kts 63°
2026-04-22 19:08 55.28829 11.72064 9969 ft 292 kts 63°
2026-04-22 19:08 55.29587 11.75322 9594 ft 291 kts 63°
2026-04-22 19:08 55.30343 11.78583 9291 ft 284 kts 63°
2026-04-22 19:09 55.31075 11.81757 8986 ft 277 kts 63°
2026-04-22 19:09 55.31794 11.84863 8684 ft 272 kts 63°
2026-04-22 19:09 55.32498 11.87904 8383 ft 266 kts 63°
2026-04-22 19:09 55.33189 11.90890 8084 ft 262 kts 63°
2026-04-22 19:10 55.33872 11.93849 7781 ft 261 kts 62°
2026-04-22 19:10 55.34557 11.96802 7475 ft 261 kts 62°
2026-04-22 19:10 55.35236 11.99750 7177 ft 260 kts 63°
2026-04-22 19:10 55.35910 12.02691 6880 ft 259 kts 62°
2026-04-22 19:11 55.36578 12.05620 6577 ft 258 kts 62°
2026-04-22 19:11 55.37244 12.08538 6271 ft 257 kts 62°
2026-04-22 19:11 55.37899 12.11410 5975 ft 255 kts 62°
2026-04-22 19:11 55.38558 12.14302 5674 ft 254 kts 62°
2026-04-22 19:12 55.39213 12.17184 5370 ft 253 kts 62°
2026-04-22 19:12 55.39863 12.20050 5071 ft 252 kts 62°
2026-04-22 19:12 55.40514 12.22908 4768 ft 251 kts 62°
2026-04-22 19:12 55.41161 12.25754 4468 ft 249 kts 62°
2026-04-22 19:13 55.41801 12.28577 4206 ft 245 kts 62°
2026-04-22 19:13 55.42427 12.31348 3954 ft 242 kts 62°
2026-04-22 19:13 55.43043 12.34077 3710 ft 238 kts 62°
2026-04-22 19:13 55.43788 12.36588 3453 ft 224 kts 41°
2026-04-22 19:14 55.44892 12.38382 3208 ft 216 kts 33°
2026-04-22 19:14 55.46019 12.40086 3041 ft 209 kts 33°
2026-04-22 19:14 55.47087 12.41717 2994 ft 196 kts 33°
2026-04-22 19:14 55.48092 12.43253 2876 ft 188 kts 33°
2026-04-22 19:15 55.48757 12.44269 2721 ft 186 kts 33°
2026-04-22 19:15 55.50035 12.46226 2396 ft 182 kts 34°
2026-04-22 19:15 55.50992 12.47692 2153 ft 182 kts 35°
2026-04-22 19:15 55.51946 12.49155 1910 ft 181 kts 36°
2026-04-22 19:16 55.52875 12.50583 1674 ft 172 kts 37°
2026-04-22 19:16 55.53745 12.51924 1446 ft 161 kts 37°
2026-04-22 19:16 55.54550 12.53162 1269 ft 146 kts 38°
2026-04-22 19:16 55.55300 12.54315 1068 ft 140 kts 38°
2026-04-22 19:17 55.56029 12.55438 883 ft 138 kts 38°
2026-04-22 19:17 55.56755 12.56554 723 ft 146 kts 38°
2026-04-22 19:17 55.57570 12.57799 1287 ft 156 kts 38°
2026-04-22 19:17 55.58429 12.59109 1635 ft 173 kts 38°
2026-04-22 19:18 55.59378 12.60553 1938 ft 190 kts 37°
2026-04-22 19:18 55.60419 12.62194 2358 ft 206 kts 38°
2026-04-22 19:18 55.61558 12.63755 2891 ft 207 kts 18°
2026-04-22 19:18 55.62900 12.63856 2994 ft 191 kts 334°
2026-04-22 19:19 55.63800 12.62257 3013 ft 189 kts 297°
2026-04-22 19:19 55.64399 12.60201 3007 ft 187 kts 308°
2026-04-22 19:19 55.65361 12.58669 3013 ft 187 kts 328°
2026-04-22 19:19 55.66591 12.57898 3014 ft 189 kts 342°
2026-04-22 19:20 55.67714 12.56810 3009 ft 186 kts 311°
2026-04-22 19:20 55.68183 12.54724 3011 ft 192 kts 276°
2026-04-22 19:20 55.68063 12.52336 3012 ft 196 kts 266°
2026-04-22 19:20 55.67840 12.49952 3011 ft 197 kts 265°
2026-04-22 19:21 55.67605 12.47572 3011 ft 196 kts 265°
2026-04-22 19:21 55.67364 12.45195 3011 ft 196 kts 265°
2026-04-22 19:21 55.67005 12.42920 3011 ft 193 kts 246°
2026-04-22 19:21 55.66082 12.41151 3012 ft 197 kts 227°
2026-04-22 19:22 55.65017 12.39613 3009 ft 197 kts 226°
2026-04-22 19:22 55.63938 12.38113 3015 ft 198 kts 225°
2026-04-22 19:22 55.62851 12.36611 3011 ft 197 kts 225°
2026-04-22 19:22 55.61766 12.35121 3011 ft 197 kts 225°
2026-04-22 19:23 55.60679 12.33634 3011 ft 197 kts 225°
2026-04-22 19:23 55.59593 12.32156 3013 ft 196 kts 225°
2026-04-22 19:23 55.58510 12.30690 3010 ft 196 kts 225°
2026-04-22 19:23 55.57385 12.29312 3007 ft 202 kts 211°
2026-04-22 19:24 55.55992 12.29008 2902 ft 209 kts 172°
2026-04-22 19:24 55.54741 12.30201 2754 ft 204 kts 135°
2026-04-22 19:24 55.53841 12.32066 2592 ft 195 kts 126°
2026-04-22 19:24 55.53044 12.33949 2447 ft 188 kts 125°
2026-04-22 19:25 55.52277 12.35798 2304 ft 185 kts 125°
2026-04-22 19:25 55.51524 12.37619 2142 ft 183 kts 125°
2026-04-22 19:25 55.50778 12.39430 2055 ft 183 kts 125°
2026-04-22 19:25 55.50062 12.41269 1999 ft 181 kts 114°
2026-04-22 19:26 55.49754 12.43382 2010 ft 177 kts 91°
2026-04-22 19:26 55.49846 12.45518 2010 ft 173 kts 71°
2026-04-22 19:26 55.50296 12.47454 2012 ft 169 kts 52°
2026-04-22 19:26 55.51034 12.49021 2006 ft 164 kts 36°
2026-04-22 19:27 55.51895 12.50340 2008 ft 164 kts 35°
2026-04-22 19:27 55.52745 12.51646 1925 ft 164 kts 35°
2026-04-22 19:27 55.53594 12.52953 1747 ft 158 kts 36°
2026-04-22 19:27 55.54396 12.54189 1555 ft 148 kts 36°
2026-04-22 19:28 55.55152 12.55354 1396 ft 142 kts 36°
2026-04-22 19:28 55.55892 12.56476 1198 ft 139 kts 36°
2026-04-22 19:28 55.56625 12.57586 1005 ft 139 kts 37°
2026-04-22 19:28 55.57350 12.58705 805 ft 138 kts 38°
2026-04-22 19:29 55.58065 12.59828 613 ft 138 kts 38°
2026-04-22 19:29 55.58787 12.60942 414 ft 138 kts 38°
2026-04-22 19:29 55.59511 12.62053 277 ft 137 kts 38°
2026-04-22 19:29 55.60229 12.63173 100 ft 138 kts 38°
2026-04-22 19:30 55.60698 12.63894 22 ft 127 kts 39°
2026-04-22 19:30 55.61380 12.64952 20 ft 73 kts 41°
2026-04-22 19:30 55.61692 12.65440 18 ft 40 kts 41°
2026-04-22 19:30 55.61799 12.65561 18 ft 14 kts 346°
2026-04-22 19:31 55.61863 12.65400 16 ft 19 kts 302°
2026-04-22 19:31 55.61919 12.65250 16 ft 12 kts 304°
2026-04-22 19:31 55.61960 12.65141 16 ft 10 kts 304°
2026-04-22 19:31 55.61981 12.65087 17 ft 1 kts 304°
2026-04-22 19:32 55.61995 12.65050 17 ft 6 kts 303°
2026-04-22 19:32 55.62038 12.65003 19 ft 9 kts 358°
2026-04-22 19:32 55.62104 12.65060 20 ft 12 kts 34°
2026-04-22 19:32 55.62183 12.65151 17 ft 13 kts 32°
2026-04-22 19:33 55.62263 12.65200 17 ft 14 kts
2026-04-22 19:33 55.62365 12.65203 17 ft 15 kts 359°
2026-04-22 19:33 55.62463 12.65200 19 ft 15 kts 359°
2026-04-22 19:33 55.62559 12.65196 17 ft 12 kts 358°
2026-04-22 19:34 55.62632 12.65205 17 ft 9 kts 27°
2026-04-22 19:34 55.62652 12.65318 17 ft 9 kts 86°
2026-04-22 19:34 55.62682 12.65380 17 ft 4 kts 26°
2026-04-22 19:34 55.62702 12.65396 17 ft 1 kts 26°
2026-04-22 19:35 55.62705 12.65399 17 ft 0 kts 26°